Flag for Micronesia Weather past 2 weeks in Palikir, Ponape, Micronesia

Now
83 °F

Mostly cloudy.


Feels Like: 91 °F
Forecast: 77 / 87 °F
Wind: 9 mph from East

Location: Pohnpei

Current Time: Dec 29, 2014 at 7:56:11 PM

Latest Report: Dec 29, 2014 at 6:50 PM


Visibility: 15 mi

Pressure: 29.78 "Hg

Humidity: 80%

Dew point: 76 °F

Location of PalikirLocation

Historic Weather in Palikir — Graph

°F

Palikir temperature yesterday

Maximum temperature yesterday: 86 °F (at 12:50 PM)
Minimum temperature yesterday: 80 °F (at 9:53 AM)
Average temperature yesterday: 83 °F

Past Weeks' High & Low Weather Summary

 TemperatureHumidityPressure
High88 °F (Dec 17, 11:50 AM)97% (Dec 23, 1:55 AM)29.90 "Hg (Dec 23, 1:55 AM)
Low76 °F (Dec 19, 6:53 AM)63% (Dec 18, 4:53 PM)29.69 "Hg (Dec 24, 3:50 PM)
Average83 °F81%29.80 "Hg
* Reported Dec 14 6:53 PM — Dec 29 6:50 PM, Palikir, Weather by CustomWeather, © 2014

Note: Actual official high and low records may vary slightly from our data, if they occured in-between our weather recording intervals... More about our weather records

Advertising

Palikir weather history for previous 24 hours

 ConditionsComfort  
Time TempWeatherWind HumidityBarometerVisibility
6:50 PM
Dec 29
83 °FMostly cloudy.9 mph80%29.78 "Hg15 mi
5:50 PM83 °FMostly cloudy.9 mph82%29.77 "Hg15 mi
4:50 PM84 °FMostly cloudy.9 mph77%29.76 "Hg15 mi
3:54 PM85 °FMostly cloudy.12 mph77%29.75 "Hg15 mi
2:55 PM83 °FMostly cloudy.5 mph83%29.76 "Hg15 mi
1:55 PM86 °FMostly cloudy.8 mph76%29.77 "Hg15 mi
12:53 PM86 °FMostly cloudy.6 mph75%29.80 "Hg15 mi
11:55 AM85 °FMostly cloudy.6 mph77%29.83 "Hg15 mi
10:55 AM86 °FMore clouds than sun.7 mph71%29.84 "Hg15 mi
9:55 AM85 °FMore clouds than sun.9 mph73%29.85 "Hg15 mi
8:50 AM84 °FMore clouds than sun.7 mph77%29.85 "Hg15 mi
7:52 AM83 °FMostly cloudy.9 mph76%29.84 "Hg15 mi
6:52 AM82 °FCloudy.7 mph79%29.82 "Hg15 mi
5:51 AM82 °FOvercast.9 mph79%29.80 "Hg15 mi
4:52 AM82 °FOvercast.6 mph79%29.78 "Hg15 mi
3:51 AM81 °FOvercast.7 mph79%29.77 "Hg15 mi
1:52 AM82 °FPassing clouds.9 mph79%29.78 "Hg15 mi
12:51 AM82 °FPassing clouds.7 mph79%29.80 "Hg15 mi
11:53 PM
Dec 28
82 °FMostly cloudy.10 mph84%29.81 "Hg15 mi
10:53 PM82 °FOvercast.8 mph86%29.82 "Hg15 mi
9:50 PM82 °FOvercast.7 mph83%29.82 "Hg15 mi
8:50 PM82 °FOvercast.7 mph84%29.81 "Hg15 mi
7:51 PM82 °FOvercast.8 mph81%29.80 "Hg15 mi
Weather by CustomWeather, © 2014

See weather overviewHow to use our weather pages